[[{"header":{"parameterUnit":"m.s-1","parameterCategory":2,"la1":30.2992,"la2":30.254,"lo1":-89.0895,"lo2":-89.0443,"dy":0.0025,"dx":0.0025,"nx":19,"ny":19,"refTime":"2026-04-10T03:00:00:Z","depth":"0","parameterNumber":2,"parameterNumberName":"U-component_of_CURRENTS"},"data":[0,0,0,0.4453,0.4455,0.4541,0.4542,0.4572,0.4572,0,0,0,0,0,0,0,0,0,0,0,0.4413,0.4413,0.4453,0.4455,0.4541,0.4542,0.4572,0.4572,0,0,0,0,0,0,0,0,0,0,0,0.4413,0.4413,0.4413,0.4455,0.4541,0.4542,0.4572,0.4527,0,0,0,0,0,0,0,0,0,0,0.4453,0.4443,0.4413,0.4413,0.4456,0.4541,0.4542,0.4525,0.4529,0.4509,0,0.4518,0,0.4548,0.4572,0.4572,0,0,0,0.4456,0.444,0.4448,0.4413,0.4457,0.4541,0.4503,0.4528,0.4533,0.4514,0.4519,0.4521,0.4548,0.4572,0.4572,0.4627,0.4628,0,0,0.4451,0.4443,0.4445,0.4451,0.4471,0.45,0.4505,0.4532,0.4539,0.4519,0.4522,0.4549,0.4572,0.4572,0.4627,0.4627,0,0,0,0.4437,0.4439,0.445,0.4449,0.4472,0.4502,0.4509,0.4539,0.4538,0.4523,0.4549,0.4572,0.4572,0.4626,0.4627,0.4667,0,0,0,0.4434,0.4431,0.4447,0.4445,0.4472,0.4522,0.4514,0.4536,0.4541,0.4549,0.4572,0.4572,0.4625,0.4626,0.4665,0.4674,0,0,0,0.441,0.443,0.4434,0.4444,0.4481,0.4523,0.4525,0.4538,0.4556,0.4572,0.4572,0.4625,0.4626,0.4662,0.4671,0.4677,0,0,0,0.4406,0.443,0.4433,0.447,0.448,0.4561,0.4526,0.4584,0.4605,0.4572,0.4625,0.4627,0.4662,0.4669,0.4676,0.4579,0.458,0,0,0.4435,0.4433,0.4454,0.446,0.4516,0.4549,0.4627,0.463,0.4615,0.4609,0.4611,0.4665,0.4671,0.4677,0.4661,0.4659,0,0,0,0.4463,0.4462,0.4488,0.4514,0.4576,0.4636,0.4667,0.4672,0.4681,0.4633,0.4683,0.4685,0.4687,0.4626,0.4626,0.4586,0.4633,0.4633,0.4633,0.4416,0.4454,0.449,0.4544,0.4602,0.4693,0.474,0.4749,0.4732,0.4744,0.4732,0.4782,0.4719,0.4717,0.468,0.4751,0.4751,0.4751,0.4752,0.4411,0.441,0.4472,0.4521,0.4594,0.466,0.4767,0.4785,0.4817,0.479,0.4791,0.4689,0.4718,0.4678,0.4754,0.4754,0.4754,0.4753,0.4753,0.4344,0.4353,0.4395,0.4455,0.4514,0.4627,0.4696,0.4786,0.4831,0.4858,0.4763,0.4761,0.4711,0.4847,0.4847,0.4847,0.4847,0.4847,0.4847,0.4243,0.4294,0.4301,0.4385,0.4394,0.4489,0.465,0.4726,0.4794,0.4796,0.4795,0.4723,0.481,0.4789,0.4849,0.4848,0.4848,0.4848,0.4848,0.4122,0.4167,0.4162,0.4174,0.4239,0.4225,0.4443,0.4578,0.4688,0.4704,0.467,0.4758,0.4728,0.4728,0.4705,0.4738,0.4739,0.4738,0.4738,0.4011,0.405,0.3985,0.3973,0.4022,0.4092,0.4037,0.4182,0.4425,0.4474,0.4607,0.4564,0.457,0.453,0.4534,0.4507,0.449,0.449,0.4489,0.39,0.391,0.38,0.3843,0.3884,0.3905,0.3699,0.3654,0.4121,0.4481,0.4578,0.4588,0.453,0.4542,0.448,0.4489,0.4445,0,0]},{"header":{"parameterUnit":"m.s-1","parameterCategory":2,"la1":30.2992,"la2":30.254,"lo1":-89.0895,"lo2":-89.0443,"dy":0.0025,"dx":0.0025,"nx":19,"ny":19,"refTime":"2026-04-10T03:00:00:Z","depth":"0","parameterNumber":3,"parameterNumberName":"V-component_of_CURRENTS"},"data":[0,0,0,-0.0273,-0.0273,-0.0278,-0.0278,-0.0303,-0.0303,0,0,0,0,0,0,0,0,0,0,0,-0.0268,-0.0268,-0.0273,-0.0273,-0.0278,-0.0278,-0.0303,-0.0303,0,0,0,0,0,0,0,0,0,0,0,-0.0269,-0.0268,-0.0267,-0.0272,-0.0278,-0.0278,-0.0303,-0.0299,0,0,0,0,0,0,0,0,0,0,-0.0294,-0.0293,-0.0268,-0.0267,-0.0272,-0.0278,-0.0278,-0.0299,-0.03,-0.0301,0,-0.0284,0,-0.0287,-0.0304,-0.0304,0,0,0,-0.0291,-0.0293,-0.0277,-0.0267,-0.0272,-0.0278,-0.0281,-0.0299,-0.03,-0.0301,-0.0284,-0.0285,-0.0287,-0.0304,-0.0304,-0.0217,-0.0216,0,0,-0.0291,-0.0291,-0.0276,-0.0277,-0.0251,-0.028,-0.0281,-0.03,-0.0301,-0.0284,-0.0286,-0.0288,-0.0304,-0.0304,-0.0218,-0.0216,0,0,0,-0.0278,-0.0291,-0.0275,-0.0276,-0.0271,-0.028,-0.028,-0.0301,-0.029,-0.0286,-0.0288,-0.0304,-0.0304,-0.0219,-0.0217,-0.0092,0,0,0,-0.0278,-0.0282,-0.0275,-0.0279,-0.027,-0.0286,-0.0281,-0.0289,-0.0291,-0.0288,-0.0304,-0.0304,-0.022,-0.0218,-0.0097,-0.0,0,0,0,-0.0272,-0.0282,-0.0271,-0.0278,-0.027,-0.0286,-0.0278,-0.0289,-0.0291,-0.0304,-0.0304,-0.0221,-0.0218,-0.0103,-0.0011,0.0107,0,0,0,-0.0289,-0.0233,-0.0271,-0.0208,-0.027,-0.0212,-0.0278,-0.0266,-0.027,-0.0304,-0.022,-0.0217,-0.0104,-0.0017,0.01,0.0259,0.0305,0,0,-0.0219,-0.0226,-0.0183,-0.0216,-0.0126,-0.0215,-0.0125,-0.0173,-0.0233,-0.0221,-0.0219,-0.0096,-0.0011,0.0105,0.0396,0.0438,0,0,0,-0.016,-0.0126,-0.0107,-0.0068,-0.0057,-0.0023,-0.0085,-0.0092,-0.0094,-0.022,-0.0082,-0.0032,0.0037,0.0119,0.0152,0.0001,-0.0206,-0.0207,-0.0207,-0.0049,-0.0035,0.0048,0.0071,0.0103,0.0106,0.0139,0.0118,0.0014,0.0036,0.0078,0.027,0.0357,0.0384,0.0226,0.0065,0.0065,0.0065,0.0066,0.0082,0.0143,0.0164,0.0243,0.0277,0.0332,0.0356,0.0307,0.0364,0.0229,0.0288,0.0257,0.0429,0.0246,0.0074,0.0073,0.0072,0.0071,0.007,0.0148,0.0188,0.0219,0.0345,0.0452,0.0476,0.0647,0.0591,0.051,0.0567,0.0631,0.063,0.0465,0.0572,0.0573,0.0574,0.0574,0.0575,0.0576,0.021,0.0252,0.0357,0.0464,0.0566,0.071,0.0805,0.0887,0.091,0.0829,0.0829,0.0537,0.0425,0.04,0.0591,0.0588,0.0586,0.0585,0.0584,0.0331,0.0336,0.0505,0.0612,0.0863,0.1109,0.1162,0.1364,0.1376,0.1434,0.0967,0.0973,0.0961,0.0933,0.0921,0.1236,0.1236,0.1236,0.1236,0.0422,0.0431,0.0685,0.0885,0.1141,0.1314,0.1711,0.181,0.1554,0.1346,0.1145,0.1017,0.0997,0.0974,0.0946,0.0927,0.1237,0.1236,0.1236,0.0544,0.06,0.0809,0.0983,0.1269,0.158,0.1973,0.2162,0.1664,0.1208,0.0906,0.0907,0.0676,0.0657,0.0577,0.0549,0.0502,0,0]}],[{"header":{"parameterUnit":"m.s-1","parameterCategory":2,"la1":30.2992,"la2":30.254,"lo1":-89.0895,"lo2":-89.0443,"dy":0.0025,"dx":0.0025,"nx":19,"ny":19,"refTime":"2026-04-10T03:00:00:Z","depth":"2","parameterNumber":2,"parameterNumberName":"U-component_of_CURRENTS"},"data":[0,0,0,0.3105,0.3106,0.3194,0.3195,0.331,0.3311,0,0,0,0,0,0,0,0,0,0,0,0.3097,0.3098,0.3104,0.3106,0.3194,0.3195,0.331,0.3311,0,0,0,0,0,0,0,0,0,0,0,0.3096,0.3097,0.3098,0.3106,0.3194,0.3195,0.3309,0.3246,0,0,0,0,0,0,0,0,0,0,0.3162,0.3116,0.3097,0.3099,0.3107,0.3194,0.3195,0.3243,0.325,0.3266,0,0.3289,0,0.3286,0.3317,0.3317,0,0,0,0.3122,0.311,0.316,0.3099,0.3107,0.3194,0.3159,0.3247,0.3255,0.3275,0.3291,0.3294,0.3288,0.3317,0.3318,0.3442,0.3442,0,0,0.3117,0.3086,0.3155,0.3166,0.3143,0.3156,0.3161,0.3252,0.3249,0.3291,0.3297,0.329,0.3318,0.3319,0.3441,0.3442,0,0,0,0.3092,0.3082,0.313,0.3161,0.3168,0.3158,0.3164,0.3245,0.327,0.3298,0.3292,0.3319,0.332,0.344,0.3441,0.3469,0,0,0,0.309,0.3067,0.3128,0.3106,0.3167,0.3197,0.3155,0.3265,0.3274,0.3291,0.3319,0.3321,0.344,0.3441,0.3466,0.348,0,0,0,0.309,0.3065,0.3087,0.3105,0.3137,0.3196,0.3225,0.3267,0.3269,0.3317,0.3321,0.3439,0.3441,0.3464,0.3476,0.3543,0,0,0,0.3041,0.3072,0.3086,0.3124,0.3136,0.3206,0.3224,0.3281,0.3325,0.3319,0.344,0.3441,0.3464,0.3474,0.3541,0.3478,0.3486,0,0,0.3055,0.3072,0.3101,0.3116,0.3133,0.3194,0.3256,0.3326,0.3354,0.3411,0.3414,0.3467,0.3476,0.3543,0.3567,0.3571,0,0,0,0.309,0.3092,0.3106,0.3122,0.3181,0.3247,0.3309,0.3351,0.3437,0.3383,0.3491,0.3496,0.3537,0.3494,0.3499,0.3448,0.3448,0.3448,0.3448,0.3022,0.3067,0.3088,0.3146,0.3189,0.3289,0.3369,0.3447,0.346,0.3513,0.3536,0.3628,0.3583,0.3586,0.3555,0.3556,0.3556,0.3556,0.3556,0.3016,0.302,0.3079,0.3118,0.3201,0.3271,0.3427,0.3485,0.3608,0.3587,0.3626,0.3546,0.3592,0.3559,0.3558,0.3558,0.3557,0.3557,0.3557,0.2929,0.2939,0.3,0.3073,0.316,0.3289,0.3414,0.3553,0.3633,0.3691,0.3675,0.3674,0.3647,0.3726,0.3727,0.3727,0.3727,0.3727,0.3728,0.2814,0.2875,0.2916,0.3029,0.3074,0.3216,0.3436,0.3528,0.3666,0.3713,0.3712,0.3687,0.3681,0.3659,0.3733,0.3732,0.3732,0.3731,0.3731,0.2699,0.2743,0.2788,0.2843,0.2976,0.3021,0.328,0.3471,0.3618,0.3667,0.3732,0.373,0.3722,0.3717,0.3697,0.3777,0.3777,0.3777,0.3777,0.2606,0.264,0.2666,0.2702,0.2777,0.2908,0.2939,0.313,0.3411,0.3497,0.3508,0.3419,0.3425,0.3395,0.3397,0.3368,0.3363,0.3362,0.336,0.2558,0.2569,0.2542,0.2583,0.2644,0.2708,0.2672,0.2696,0.2983,0.3336,0.3353,0.3766,0.3664,0.3661,0.3637,0.3632,0.3593,0,0]},{"header":{"parameterUnit":"m.s-1","parameterCategory":2,"la1":30.2992,"la2":30.254,"lo1":-89.0895,"lo2":-89.0443,"dy":0.0025,"dx":0.0025,"nx":19,"ny":19,"refTime":"2026-04-10T03:00:00:Z","depth":"2","parameterNumber":3,"parameterNumberName":"V-component_of_CURRENTS"},"data":[0,0,0,0.0232,0.0232,0.0203,0.0202,0.0127,0.0126,0,0,0,0,0,0,0,0,0,0,0,0.0233,0.0233,0.0232,0.0232,0.0203,0.0202,0.0127,0.0126,0,0,0,0,0,0,0,0,0,0,0,0.0233,0.0233,0.0233,0.0232,0.0203,0.0202,0.0127,0.0155,0,0,0,0,0,0,0,0,0,0,0.0186,0.0205,0.0233,0.0233,0.0232,0.0203,0.0202,0.0156,0.0153,0.0134,0,0.0135,0,0.014,0.0122,0.0121,0,0,0,0.0215,0.0208,0.0198,0.0233,0.0232,0.0203,0.0211,0.0154,0.0151,0.013,0.0134,0.0131,0.0138,0.0121,0.0121,0.0127,0.0127,0,0,0.0217,0.0226,0.0201,0.0196,0.023,0.0212,0.0211,0.0152,0.0151,0.0133,0.013,0.0137,0.0121,0.012,0.0126,0.0127,0,0,0,0.0233,0.0227,0.0219,0.0198,0.0202,0.0212,0.021,0.0153,0.015,0.0129,0.0136,0.012,0.012,0.0126,0.0127,0.0244,0,0,0,0.0233,0.0238,0.022,0.0225,0.0204,0.0186,0.0212,0.0154,0.0148,0.0137,0.012,0.0119,0.0125,0.0126,0.0239,0.0311,0,0,0,0.0233,0.0238,0.0236,0.0226,0.0222,0.0187,0.018,0.0153,0.0153,0.0121,0.0119,0.0125,0.0126,0.0235,0.0303,0.034,0,0,0,0.0241,0.0275,0.0236,0.0279,0.0222,0.0255,0.018,0.0184,0.0166,0.012,0.0125,0.0126,0.0234,0.0298,0.0336,0.0401,0.0426,0,0,0.0296,0.0281,0.0309,0.0276,0.0345,0.0257,0.0311,0.0243,0.0177,0.0137,0.0137,0.024,0.0302,0.0339,0.0477,0.0501,0,0,0,0.0337,0.0358,0.0373,0.0397,0.0395,0.0402,0.0331,0.0296,0.0254,0.0175,0.0234,0.027,0.0289,0.0319,0.0338,0.0133,0.0133,0.0132,0.0132,0.0427,0.0433,0.0497,0.0506,0.0519,0.0494,0.0484,0.0418,0.0337,0.0333,0.036,0.0465,0.0499,0.0513,0.0342,0.0342,0.0343,0.0343,0.0343,0.0536,0.0581,0.0587,0.0645,0.0645,0.0673,0.0627,0.0572,0.0542,0.046,0.0472,0.0435,0.0541,0.0353,0.0351,0.035,0.0349,0.0348,0.0347,0.0608,0.0633,0.0651,0.0731,0.08,0.0796,0.087,0.0792,0.067,0.0682,0.067,0.0668,0.0537,0.0675,0.0676,0.0676,0.0677,0.0677,0.0677,0.0669,0.0695,0.0763,0.0835,0.0906,0.1002,0.1012,0.1001,0.092,0.0818,0.0817,0.0577,0.0566,0.0555,0.0685,0.0684,0.0683,0.0682,0.0682,0.0758,0.0758,0.0873,0.0942,0.1117,0.1271,0.126,0.1254,0.1185,0.1155,0.0875,0.0868,0.0833,0.0816,0.0811,0.0999,0.0999,0.0999,0.0999,0.0812,0.0821,0.0975,0.1113,0.1289,0.1401,0.1544,0.1478,0.1276,0.1115,0.111,0.1054,0.1039,0.1009,0.0988,0.0983,0.1217,0.1217,0.1217,0.0868,0.0911,0.1032,0.1163,0.137,0.1548,0.1682,0.1613,0.1308,0.1223,0.1114,0.102,0.0919,0.0903,0.0835,0.0811,0.0793,0,0]}],[{"header":{"parameterUnit":"m.s-1","parameterCategory":2,"la1":30.2992,"la2":30.254,"lo1":-89.0895,"lo2":-89.0443,"dy":0.0025,"dx":0.0025,"nx":19,"ny":19,"refTime":"2026-04-10T03:00:00:Z","depth":"4","parameterNumber":2,"parameterNumberName":"U-component_of_CURRENTS"},"data":[0,0,0,0.181,0.1815,0.2063,0.2064,0.2293,0.2295,0,0,0,0,0,0,0,0,0,0,0,0.172,0.1722,0.1809,0.1816,0.2063,0.2064,0.2293,0.2295,0,0,0,0,0,0,0,0,0,0,0,0.1719,0.1721,0.1724,0.1817,0.2063,0.2064,0.2292,0.2126,0,0,0,0,0,0,0,0,0,0,0.1896,0.1822,0.1721,0.1724,0.1818,0.2062,0.2064,0.2119,0.2137,0.2157,0,0.2205,0,0.2259,0.2308,0.2309,0,0,0,0.1812,0.1807,0.1882,0.1724,0.182,0.2062,0.195,0.213,0.2149,0.2179,0.2209,0.2218,0.2262,0.231,0.2311,0.2516,0.2517,0,0,0.1799,0.1756,0.1869,0.1895,0.1897,0.1942,0.1958,0.2142,0.216,0.2209,0.2224,0.2266,0.2311,0.2313,0.2516,0.2516,0,0,0,0.1762,0.1746,0.1819,0.1884,0.1939,0.195,0.1968,0.2152,0.218,0.2227,0.2269,0.2312,0.2315,0.2515,0.2516,0.255,0,0,0,0.1753,0.1726,0.1812,0.1788,0.1936,0.206,0.1973,0.2167,0.219,0.2268,0.2312,0.2317,0.2514,0.2515,0.2548,0.2566,0,0,0,0.1707,0.1721,0.1755,0.1786,0.1897,0.2059,0.2097,0.2173,0.2215,0.2309,0.2317,0.2513,0.2515,0.2545,0.2562,0.2645,0,0,0,0.1646,0.1698,0.1754,0.1825,0.1894,0.2039,0.2096,0.2219,0.23,0.2313,0.2514,0.2516,0.2544,0.2559,0.2642,0.2316,0,0,0,0.1672,0.17,0.1741,0.1797,0.1913,0.2004,0.2139,0.2272,0.2331,0.2445,0.2451,0.2548,0.2562,0.2645,0.242,0,0,0,0,0.1722,0.1751,0.1796,0.1882,0.1994,0.2118,0.2245,0.232,0.247,0.2391,0.2574,0.2582,0.2633,0.2434,0.2524,0.2524,0.2524,0.2524,0.2523,0.1687,0.1755,0.1827,0.1931,0.203,0.221,0.2323,0.2452,0.2496,0.2576,0.2628,0.2739,0.253,0.2648,0.2648,0.2648,0.2648,0.2649,0.2649,0.1698,0.1729,0.1841,0.194,0.2082,0.222,0.2432,0.2512,0.2702,0.2691,0.274,0.2505,0.2653,0.2652,0.2651,0.2651,0.265,0.265,0.265,0.1634,0.166,0.1749,0.1899,0.2067,0.2256,0.2434,0.2608,0.2741,0.2812,0.2645,0.2788,0.2766,0.2861,0.2862,0.2862,0.2862,0.2863,0.2863,0.1525,0.1612,0.1691,0.1865,0.1973,0.2175,0.2465,0.2582,0.2753,0.2665,0.2851,0.2812,0.2805,0.2781,0.287,0.2869,0.2868,0.2867,0.2867,0.1435,0.1497,0.1591,0.169,0.1914,0.203,0.2328,0.2477,0.2586,0.2585,0.2592,0.2604,0.2572,0.2572,0.2538,0.2559,0.2555,0.2551,0,0.1358,0.14,0.1507,0.1606,0.1726,0.1928,0.2006,0.2183,0.2344,0.226,0.2589,0.259,0.2598,0.2555,0.2549,0.2503,0,0,0,0.1307,0.1355,0.1391,0.1512,0.1615,0.1784,0.2017,0.2007,0.2313,0.2317,0.2455,0.248,0.2701,0.2891,0.2873,0.2864,0.2825,0,0]},{"header":{"parameterUnit":"m.s-1","parameterCategory":2,"la1":30.2992,"la2":30.254,"lo1":-89.0895,"lo2":-89.0443,"dy":0.0025,"dx":0.0025,"nx":19,"ny":19,"refTime":"2026-04-10T03:00:00:Z","depth":"4","parameterNumber":3,"parameterNumberName":"V-component_of_CURRENTS"},"data":[0,0,0,0.0297,0.0297,0.0277,0.0277,0.0217,0.0216,0,0,0,0,0,0,0,0,0,0,0,0.0302,0.0302,0.0297,0.0297,0.0277,0.0277,0.0217,0.0216,0,0,0,0,0,0,0,0,0,0,0,0.0302,0.0302,0.0302,0.0297,0.0277,0.0277,0.0217,0.0239,0,0,0,0,0,0,0,0,0,0,0.0261,0.0275,0.0302,0.0302,0.0297,0.0277,0.0277,0.024,0.0237,0.0219,0,0.0221,0,0.0221,0.0212,0.0212,0,0,0,0.0288,0.0278,0.0273,0.0302,0.0297,0.0277,0.0284,0.0239,0.0236,0.0215,0.022,0.0218,0.022,0.0212,0.0212,0.0195,0.0195,0,0,0.0289,0.0295,0.0275,0.0271,0.0298,0.0284,0.0283,0.0237,0.0235,0.022,0.0217,0.0219,0.0212,0.0211,0.0194,0.0195,0,0,0,0.0298,0.0296,0.0293,0.0273,0.0275,0.0284,0.0283,0.0237,0.0237,0.0216,0.0218,0.0211,0.0211,0.0194,0.0194,0.0286,0,0,0,0.0299,0.0302,0.0293,0.0296,0.0276,0.0261,0.0284,0.024,0.0235,0.0219,0.0211,0.021,0.0194,0.0194,0.0283,0.0334,0,0,0,0.0302,0.0302,0.0302,0.0296,0.0292,0.0262,0.0259,0.0239,0.0236,0.0212,0.021,0.0194,0.0194,0.028,0.0329,0.0341,0,0,0,0.0305,0.0327,0.0302,0.0329,0.0293,0.0312,0.0259,0.0262,0.0249,0.0211,0.0194,0.0194,0.0279,0.0326,0.0338,0.0358,0,0,0,0.034,0.0331,0.0349,0.0327,0.037,0.0314,0.0346,0.0301,0.0248,0.0204,0.0204,0.0284,0.0329,0.034,0.0394,0,0,0,0,0.0365,0.038,0.0388,0.0403,0.0401,0.0405,0.0359,0.033,0.0294,0.0244,0.0271,0.0296,0.03,0.0303,0.0197,0.0197,0.0197,0.0197,0.0197,0.0415,0.0423,0.0466,0.0475,0.0484,0.0466,0.0456,0.0404,0.0349,0.0342,0.0361,0.0421,0.0427,0.0341,0.0342,0.0342,0.0342,0.0343,0.0343,0.0483,0.0512,0.0525,0.057,0.0572,0.0591,0.0551,0.0513,0.0478,0.0426,0.0424,0.0388,0.0351,0.035,0.0348,0.0347,0.0347,0.0346,0.0346,0.0519,0.0538,0.0565,0.0633,0.0684,0.0683,0.0726,0.0669,0.0573,0.0576,0.0542,0.0473,0.0475,0.0566,0.0566,0.0567,0.0567,0.0567,0.0567,0.0543,0.0575,0.0636,0.0704,0.0761,0.083,0.0832,0.0807,0.0716,0.0653,0.0601,0.0495,0.0488,0.0486,0.0572,0.0571,0.0571,0.057,0.057,0.0581,0.0601,0.0694,0.0758,0.0893,0.0947,0.0961,0.0896,0.0858,0.0783,0.0671,0.0664,0.0627,0.0617,0.0618,0.0746,0.0747,0.0747,0,0.0601,0.0619,0.0745,0.0856,0.0972,0.1015,0.102,0.0981,0.0843,0.0829,0.0823,0.0699,0.0692,0.0652,0.0643,0.0646,0,0,0,0.0624,0.0664,0.0754,0.0872,0.1003,0.1019,0.1023,0.0985,0.0875,0.0841,0.0762,0.0758,0.0692,0.0586,0.0513,0.0504,0.0497,0,0]}]]